This is the latest recevied weather packets stored in our database for station/object IU0KRR-10. If no packets are shown the sender has not sent any weather packets the latest 10 day(s).
| Time | Temp. | Humidity | Pressure | Rain* | Wind** | Luminosity | Snow |
|---|---|---|---|---|---|---|---|
| 1787456345 | 18.89° C | 60% | 876.2 hPa | - | - | - | - |
| 1787455444 | 18.89° C | 60% | 876 hPa | - | - | - | - |
| 1787454544 | 18.89° C | 57% | 876 hPa | - | - | - | - |
| 1787453643 | 18.89° C | 57% | 876.1 hPa | - | - | - | - |
| 1787452842 | 19.44° C | 57% | 876.1 hPa | - | - | - | - |
| 1787452742 | 19.44° C | 57% | 876.1 hPa | - | - | - | - |
| 1787451878 | 19.44° C | 57% | 876.2 hPa | - | - | - | - |
| 1787451841 | 19.44° C | 57% | 876.2 hPa | - | - | - | - |
| 1787450999 | 18.89° C | 57% | 876.2 hPa | - | - | - | - |
| 1787450940 | 18.89° C | 57% | 876.2 hPa | - | - | - | - |
| 1787450040 | 19.44° C | 58% | 876.2 hPa | - | - | - | - |
| 1787449139 | 19.44° C | 57% | 876.2 hPa | - | - | - | - |
| 1787448238 | 19.44° C | 57% | 876.2 hPa | - | - | - | - |
| 1787447337 | 18.89° C | 57% | 876.2 hPa | - | - | - | - |
| 1787446436 | 19.44° C | 57% | 876.3 hPa | - | - | - | - |
| 1787445571 | 19.44° C | 55% | 876.3 hPa | - | - | - | - |
| 1787445536 | 19.44° C | 55% | 876.3 hPa | - | - | - | - |
| 1787444669 | 19.44° C | 56% | 876.2 hPa | - | - | - | - |
| 1787444634 | 19.44° C | 56% | 876.2 hPa | - | - | - | - |
| 1787443734 | 19.44° C | 57% | 876.2 hPa | - | - | - | - |
| 1787442833 | 19.44° C | 59% | 876.3 hPa | - | - | - | - |
| 1787442001 | 19.44° C | 62% | 876.3 hPa | - | - | - | - |
| 1787441933 | 19.44° C | 62% | 876.3 hPa | - | - | - | - |
| 1787441063 | 19.44° C | 55% | 876.5 hPa | - | - | - | - |
| 1787441032 | 19.44° C | 55% | 876.5 hPa | - | - | - | - |
* Rain since midnight (hover to see other rain measurements)
** Current wind speed in m/s (hover to see current wind gust speed)